Location: Poughquag
(41.6090°N, 73.6820°W)
Time: 17:53:44
(UTC-05:00)

A-11 Canister half - Pass Details

Date: 14 December 2023
Orbit: 1526 x 1682 km, 47.3° (Epoch: 23 February)

Event Time Altitude Azimuth Distance (km) Brightness Sun altitude
Rises 17:47:49 0° 257° (WSW) 4,904 13.6 -14.9°
Reaches altitude 10° 17:50:59 10° 259° (W) 3,928 12.5 -15.5°
Maximum altitude 18:01:07 72° 344° (NNW) 1,752 9.2 -17.3°
Enters shadow 18:07:55 24° 65° (ENE) 2,948 9.9 -18.5°
